Location: B?lite?ti
(46.2833°N, 22.7333°E)
Time: 17:35:14
(UTC+00:00)

Daily predictions for brighter satellites

Satellite Brightness Start Highest point End
(mag) Time Altitude Azimuth Time Altitude Azimuth Time Altitude Azimuth
IGS 5A 3.5 18:55:12 10° SSE 18:59:21 77° ENE 19:03:31 10° N
Cosmos 1459 Rocket 4.0 18:54:11 10° N 19:00:15 72° E 19:06:20 10° SSE
Cosmos 1908 3.2 18:58:02 10° N 19:01:55 90° NNE 19:05:45 10° S
Cosmos 1110 Rocket 4.4 19:00:34 10° SSW 19:05:45 72° WNW 19:11:00 10° NNE
SPOT 5 4.1 19:04:54 10° ESE 19:09:04 28° ENE 19:13:04 10° N
Landsat 7 3.9 19:04:49 10° SSE 19:09:35 85° ENE 19:14:22 10° NNW
SPOT 3 Rocket 3.6 19:07:08 10° SSE 19:12:19 89° ENE 19:17:34 10° NNW
Cosmos 1802 Rocket 4.1 19:09:23 10° N 19:15:44 77° E 19:22:07 10° SSE
Cosmos 2219 Rocket 2.2 19:12:30 10° SSW 19:18:09 73° ESE 19:23:49 10° NNE
Cosmos 2333 4.4 19:12:23 10° SSW 19:18:09 83° WNW 19:23:54 10° NNE
OBJECT-B 3.8 19:17:39 10° WSW 19:19:02 12° W 19:20:25 10° WNW
Cosmos 1867 3.7 19:14:47 10° NNW 19:20:17 73° NE 19:25:36 11° SE
Resurs 01 Rocket 2.2 19:19:56 10° S 19:24:15 56° W 19:28:37 10° NNW
ATLAS CENTAUR R/B 4.1 19:21:45 10° SE 19:24:22 14° E 19:28:12 10° ENE
Cosmos 1544 Rocket 3.8 19:23:39 10° NNW 19:28:06 72° W 19:32:29 10° S
ERS-1 Rocket 3.6 19:23:39 10° SE 19:28:17 42° ENE 19:33:02 10° N
Cosmos 1455 Rocket 4.4 19:27:39 10° NNW 19:31:50 40° W 19:35:59 10° SSW
BREEZE-M DEB (TANK) 2.6 19:29:41 10° WSW 19:32:07 84° NNW 19:37:17 10° ENE
Cosmos 1674 4.5 19:30:18 10° SW 19:33:39 32° WNW 19:37:01 10° N
Cosmos 405 2.9 19:30:58 10° NNW 19:34:26 83° W 19:37:48 10° S
Cosmos 2333 Rocket 2.5 19:30:20 10° SSW 19:36:04 74° WNW 19:41:49 10° NNE
Cosmos 1864 Rocket 4.5 19:29:55 10° N 19:36:07 82° E 19:42:14 10° S
X-37B 1.3 19:36:10 10° SW 19:39:03 32° SSE 19:41:57 10° E
Cosmos 1346 Rocket 3.6 19:38:52 13° SSE 19:42:00 35° E 19:45:41 10° NNE
Spot 2 Rocket 3.5 19:39:11 11° SSE 19:44:01 83° ENE 19:49:09 10° NNW
Cosmos 1025 Rocket 3.9 19:40:29 10° SSW 19:44:43 50° WNW 19:48:58 10° N
Cosmos 2237 Rocket 2.8 19:40:21 10° S 19:45:27 37° ESE 19:50:35 10° NE
Cosmos 2360 Rocket 4.2 19:40:26 10° WSW 19:45:29 33° NW 19:50:33 10° NNE
Cosmos 1455 4.0 19:42:46 10° NNE 19:45:34 19° ENE 19:47:45 13° ESE
CZ-2C R/B 4.0 19:41:53 10° N 19:46:42 77° WNW 19:51:25 10° SSW
SL-16 R/B 4.0 19:44:50 11° ESE 19:46:49 13° E 19:49:27 10° ENE
Cosmos 2228 3.7 19:42:50 10° N 19:47:03 42° ENE 19:50:12 16° SE
JB-3 4.3 19:44:06 10° NNE 19:48:09 81° ESE 19:52:15 10° S
Cosmos 2233 Rocket 4.1 19:42:16 10° N 19:48:25 65° E 19:53:48 14° SSE
Cosmos 1607 4.2 19:42:47 10° NNW 19:49:12 66° NE 19:54:32 15° SE
Cosmos 2123 Rocket 4.1 19:42:56 10° S 19:49:15 85° W 19:55:38 10° N
Cosmos 1340 3.6 19:49:58 10° SSW 19:53:36 47° WNW 19:57:16 10° N
SL-4 R/B 2.0 19:50:13 10° WSW 19:54:30 88° NNW 19:58:28 10° ENE
Cosmos 1300 3.1 19:55:13 10° NNW 19:58:59 59° W 20:02:18 13° S
ARIANE 5 R/B 2.7 19:56:01 14° S 19:59:51 79° WSW 20:04:23 10° NNW
Meteor 2-5 Rocket 3.8 19:56:06 10° SSW 20:01:39 82° W 20:07:21 10° N
Meteor 2-10 Rocket 3.4 19:57:46 10° N 20:02:49 72° ENE 20:06:33 18° SSE
Cosmos 1536 Rocket 4.1 19:59:01 10° SSW 20:03:24 60° W 20:07:48 10° N
Cosmos 1626 4.3 20:00:28 10° SW 20:03:36 26° WNW 20:06:44 10° NNW
Lacrosse 5 rocket 4.0 20:05:07 10° WNW 20:07:48 19° NNW 20:10:28 10° NNE
Cosmos 1503 Rocket 4.1 20:07:37 10° NNW 20:13:02 75° ENE 20:16:42 21° SSE
CARTOSAT-1 4.2 20:09:37 14° S 20:13:14 52° W 20:17:28 10° NNW
Meteor 1-24 Rocket 3.8 20:12:01 10° SSW 20:17:24 75° WNW 20:23:01 10° N
BREEZE-M DEB (TANK) 2.2 20:16:14 10° W 20:18:47 72° NNW 20:24:20 10° ENE
Terra 1.8 20:16:31 20° SSE 20:19:47 86° ENE 20:24:34 10° NNW
Cosmos 2278 Rocket 2.3 20:14:18 10° NNW 20:19:59 77° WSW 20:23:54 21° SSE
ATLAS CENTAUR R/B 4.1 20:21:50 10° W 20:23:29 12° WSW 20:25:09 10° SW
Cosmos 1943 Rocket 3.5 20:22:09 10° N 20:26:57 29° NE 20:31:11 12° ESE
CZ-4B DEB 4.1 20:27:27 32° SSE 20:28:46 88° W 20:31:56 10° NNW
COSMOS 2428 4.0 20:23:48 10° SW 20:29:15 43° NW 20:34:45 10° NNE
Cosmos 192 4.3 20:33:04 17° S 20:36:47 72° ESE 20:41:42 10° NNE
ATLAS 3B R/B 4.2 20:34:50 10° WSW 20:40:54 37° NW 20:47:12 10° NNE
NOSS 0 Rocket 4.3 20:35:58 10° SW 20:42:09 68° WNW 20:48:23 10° NNE
Cosmos 389 Rocket 3.6 20:40:20 10° NNW 20:43:33 37° W 20:45:18 22° SSW
Cosmos 1464 Rocket 4.2 20:37:44 10° N 20:44:06 65° ENE 20:47:58 25° SSE
SPOT 5 3.9 20:43:25 16° SSW 20:47:00 39° W 20:51:28 10° NNW
Cosmos 1184 Rocket 2.6 20:47:56 41° S 20:48:55 84° E 20:52:10 10° NNE
BREEZE-M DEB (TANK) 3.3 20:37:28 10° SW 20:49:09 63° SSE 20:52:36 10° ENE
NOSS 3-1 (C) 3.6 20:48:09 27° SSE 20:50:31 41° ESE 20:56:09 10° NE
Cosmos 1777 Rocket 4.1 20:47:39 10° NNW 20:52:58 70° ENE 20:55:44 29° SE
Cosmos 1726 Rocket 3.9 20:48:43 10° NNW 20:53:07 62° W 20:55:26 27° SSW
Cosmos 1980 4.2 20:51:44 10° SW 20:57:21 61° WNW 21:03:00 10° NNE
Cosmos 1441 Rocket 3.1 20:56:13 39° SSE 20:57:27 67° E 21:01:14 10° NNE
SJ 16-02 2.2 20:55:19 10° N 20:59:27 39° ENE 21:01:23 25° ESE
NOSS 2-3 (E) 4.1 21:02:00 34° SE 21:02:30 35° ESE 21:06:41 10° NE
Iridium 2 4.1 21:01:28 29° SSW 21:03:10 58° W 21:06:53 10° N
Cosmos 2058 Rocket 3.1 20:59:52 10° NNW 21:04:18 77° W 21:06:09 34° S
NOSS 3-1 (A) 4.0 21:03:22 27° SE 21:04:33 30° ESE 21:09:40 10° NE
Okean 1-7 Rocket 3.5 21:04:37 34° S 21:06:29 77° E 21:10:55 10° NNE
USA 215 3.9 21:03:32 10° ENE 21:09:22 34° SE 21:11:27 28° SSE
Meteor 1-21 Rocket 4.2 21:06:41 26° S 21:10:04 88° E 21:15:53 10° NNE
X-37B 0.6 21:12:19 10° W 21:15:11 63° SW 21:15:11 63° SW
Cosmos 1892 Rocket 4.4 21:15:21 20° SW 21:18:09 46° WNW 21:22:28 10° N
Cosmos 1455 3.5 21:17:49 10° NNW 21:21:14 32° W 21:22:38 24° SW
Cosmos 2034 Rocket 3.9 21:16:44 10° N 21:22:56 88° E 21:26:04 31° S
Cosmos 1703 3.7 21:27:14 33° SW 21:28:45 56° WNW 21:32:41 10° N
Cosmos 2237 Rocket 3.5 21:24:15 10° WSW 21:29:29 38° NW 21:34:45 10° NNE
SL-16 R/B 2.1 21:26:40 26° SSW 21:30:02 86° ESE 21:35:45 10° NNE
OPS 6432 4.2 21:28:11 10° NW 21:31:13 89° SW 21:31:36 68° SE
Spot 4 3.8 21:29:58 39° SSE 21:31:46 90° SW 21:36:35 10° NNW
Meteor 1-4 Rocket 2.4 21:30:32 10° NNW 21:34:00 71° W 21:34:25 62° SSW
SL-4 R/B 3.4 21:30:34 10° WNW 21:34:24 38° N 21:37:57 10° ENE
GP-B 4.0 21:32:20 10° NNE 21:36:27 36° E 21:37:35 31° ESE
Cosmos 2369 Rocket 2.8 21:31:06 10° NNW 21:36:41 50° ENE 21:39:58 23° ESE
Cosmos 1626 Rocket 3.6 21:40:56 39° SSW 21:42:30 73° W 21:46:57 10° N
NOSS 2-3 (D) 3.4 21:42:16 44° SSW 21:43:32 75° SE 21:48:16 10° NE
USA 267 4.1 21:37:27 10° E 21:43:42 50° NNE 21:49:58 10° NW
Cosmos-2242 3.6 21:40:43 10° N 21:44:59 48° ENE 21:46:15 37° ESE
ALOS 2 2.6 21:43:59 44° SE 21:45:18 72° ENE 21:49:42 10° N
Lacrosse 5 rocket 4.1 21:45:45 10° NNW 21:48:01 16° N 21:50:16 10° NE
Cosmos 1602 Rocket 3.6 21:51:02 44° SSW 21:52:26 81° W 21:56:56 10° N
FALCON 9 DEB 3.7 21:52:41 10° NW 21:56:03 55° NNE 21:57:11 35° E
Cosmos 1763 Rocket 3.9 21:55:39 38° SE 21:56:56 46° ESE 22:01:51 10° NNE
ATLAS CENTAUR R/B 3.7 21:52:42 10° WSW 21:57:48 73° NNW 22:11:40 10° NE
Tsikada Rocket 4.0 21:54:43 32° SSW 21:57:48 80° W 22:04:00 10° N
Terra 4.2 21:56:28 10° WSW 21:58:10 12° W 21:59:52 10° WNW
USA 305 3.9 22:00:40 31° ESE 22:00:40 31° ESE 22:03:41 10° ENE
NOSS 2-3 (C) 3.6 21:58:18 32° SW 22:00:12 76° NW 22:05:05 10° NE
Cosmos 1758 Rocket 3.5 21:59:56 50° S 22:01:00 76° E 22:05:23 10° NNE
Cosmos 2278 Rocket 4.4 22:01:14 10° WNW 22:03:04 12° W 22:04:53 10° WSW
Cosmos 1408 3.2 22:08:28 42° ESE 22:08:40 43° E 22:12:11 10° NNE
Cosmos 1943 Rocket 2.5 22:05:37 10° NW 22:10:57 51° WSW 22:12:42 37° SSW
Cosmos 2297 4.4 22:05:56 10° NW 22:11:11 41° WSW 22:12:59 32° SSW
Cosmos 2221 4.2 22:11:07 10° NNE 22:14:37 24° ENE 22:16:20 19° ESE
USA 32 4.5 22:15:47 10° NNW 22:20:52 51° W 22:22:47 34° SW
Lacrosse 4 Rocket 3.1 22:18:00 10° NNW 22:21:36 28° NE 22:24:15 15° ESE
Cosmos 540 Rocket 4.0 22:21:16 36° SE 22:22:30 43° ESE 22:27:20 10° NE
USA 306 3.1 22:22:38 50° SE 22:22:38 50° SE 22:26:40 10° ENE
In-Cosmos 22 Rocket 4.1 22:22:14 41° S 22:24:14 76° E 22:29:39 10° NNE
Cosmos 1892 2.6 22:26:54 66° SSW 22:27:25 88° W 22:31:19 10° N
Cosmos 2279 Rocket 4.0 22:22:26 10° N 22:28:42 83° E 22:31:28 36° SSE
EO 1 Del DPAF 4.4 22:29:03 10° NE 22:32:20 29° E 22:32:35 29° ESE
USA 229 DEB 3.8 22:30:08 18° SW 22:35:04 69° NW 22:41:57 10° NE
USA 229 3.8 22:30:18 18° SW 22:35:10 70° NW 22:42:04 10° NE
Cosmos 1634 Rocket 4.3 22:31:15 10° NNW 22:37:24 56° W 22:40:09 33° SSW
SJ 16-02 2.9 22:34:25 10° NW 22:37:47 22° W 22:38:21 21° WSW
Exosat Rocket 3.7 22:35:38 36° SSW 22:38:14 79° ESE 22:43:24 10° NNE
Cosmos 1943 3.1 22:36:59 40° SSW 22:39:06 78° ESE 22:44:47 10° NNE
Cosmos 1825 2.2 22:40:05 56° SE 22:40:26 60° E 22:44:10 10° NNE
USA 290 4.1 22:40:59 21° E 22:40:59 21° E 22:43:02 10° NE
Cosmos 1656 Rocket 3.6 22:35:07 10° NNW 22:40:51 87° WSW 22:43:13 37° SSE
Thor Agena Rocket 3.5 22:35:57 10° NNE 22:41:13 87° ESE 22:43:02 42° SSW
NOSS 3-1 (C) 4.4 22:36:04 10° WSW 22:41:18 43° NW 22:47:28 10° NNE
GEOS 3 Rocket 3.8 22:40:05 40° S 22:41:39 54° SW 22:46:55 10° NW
Cosmos 990 Rocket 4.2 22:37:39 10° NNW 22:42:42 54° WSW 22:44:06 41° SSW
BREEZE-M DEB (TANK) 4.0 22:45:22 21° ENE 22:45:22 21° ENE 22:46:29 10° ENE
FALCON 9 DEB 4.2 22:42:20 10° NW 22:45:19 40° NNE 22:47:37 15° E
Cosmos 841 Rocket 3.5 22:48:09 42° S 22:49:43 64° ESE 22:54:48 10° NNE
USA 215 3.3 22:46:13 10° NE 22:52:47 81° NW 22:58:45 13° WSW
Cosmos 1603 3.7 22:50:39 35° SSW 22:53:09 81° WNW 22:58:50 10° NNE
FALCON 9 DEB 3.4 22:51:04 10° NW 22:54:07 56° NNE 22:54:41 46° ENE
NOSS 3-1 (A) 3.9 22:50:45 17° WSW 22:54:58 54° NW 23:01:18 10° NE
Cosmos 1825 Rocket 4.4 22:54:38 33° WSW 22:56:00 42° WNW 23:00:15 10° N
Cosmos 1437 Rocket 2.5 22:54:13 10° N 22:58:04 90° WSW 22:58:35 66° S
Cosmos 1356 4.3 22:58:09 36° W 22:58:27 37° WNW 23:01:38 10° N
PSLV R/B 3.6 22:55:11 10° NNE 22:59:37 83° WNW 23:00:53 47° SSW
Cosmos 2058 2.8 23:01:40 57° S 23:02:28 81° E 23:06:35 10° N
Nadezhda 4 Rocket 4.0 23:01:16 34° S 23:04:00 73° E 23:10:07 10° NNE
Cosmos 1937 Rocket 3.6 22:59:29 10° NNW 23:04:45 62° WSW 23:06:28 40° SSW
FALCON 9 DEB 3.2 23:03:10 10° NW 23:06:15 65° NNE 23:06:37 58° ENE
FALCON 9 DEB 3.4 23:04:48 10° NW 23:07:53 57° NNE 23:08:57 34° E
Cosmos 1869 4.5 23:04:38 10° NNW 23:08:14 30° W 23:08:45 29° WSW
USA 307 2.8 23:06:51 40° WSW 23:08:21 85° NNW 23:12:37 10° ENE
Cosmos 1437 3.5 23:09:29 10° N 23:12:05 37° ENE 23:12:05 37° ENE
Cosmos 1898 Rocket 4.2 23:07:21 10° NW 23:12:10 38° WSW 23:13:23 33° SW
Meteor 2-2 Rocket 4.4 23:06:59 10° NNW 23:13:01 74° W 23:15:39 35° S
ATLAS 5 CENTAUR R/B 1.3 23:13:04 56° S 23:13:47 72° SE 23:18:11 10° NE
SL-4 R/B 3.0 23:10:48 10° WNW 23:14:30 43° NNE 23:17:57 10° E
SL-16 R/B 4.4 23:10:49 10° W 23:14:56 20° NW 23:19:03 10° N
Cosmos 2151 4.3 23:14:34 24° SE 23:16:01 30° E 23:19:41 10° NNE
Resurs 1-4 Rocket 3.5 23:12:26 10° NE 23:16:59 28° E 23:19:41 18° SE
Cosmos 405 Rocket 3.5 23:16:45 34° W 23:17:24 37° WNW 23:20:52 10° N
ADEOS II 4.4 23:15:47 10° ENE 23:18:18 13° E 23:20:50 10° ESE
Cosmos 921 Rocket 2.8 23:17:40 52° SSW 23:18:40 89° WNW 23:22:52 10° NNE
OE (NEXTSAT) 4.1 23:18:32 52° W 23:19:18 84° S 23:22:45 10° E
Cosmos 2369 Rocket 3.3 23:15:37 10° NW 23:20:26 29° WSW 23:21:44 26° SW
YAOGAN 11 4.3 23:20:10 34° SSE 23:22:01 71° ENE 23:26:33 10° N
Cosmos 372 Rocket 4.0 23:18:52 10° NNW 23:24:06 72° WSW 23:26:12 37° S
USA 308 3.1 23:22:32 28° WSW 23:24:39 69° NNW 23:28:55 10° NE
Cosmos 1242 Rocket 2.4 23:21:35 10° NNW 23:25:13 75° W 23:25:41 63° SSW
USA 267 3.2 23:20:03 10° SE 23:26:34 70° SW 23:33:07 10° NW
Lacrosse 5 rocket 2.7 23:24:38 10° NW 23:27:57 34° NNE 23:31:19 10° E
Cosmos 1814 Rocket 3.9 23:26:51 38° SSW 23:28:54 88° WNW 23:34:05 10° NNE
Meteor 2-8 Rocket 4.4 23:24:24 10° NNW 23:30:34 77° W 23:33:39 31° S
DELTA 2 R/B (1) 3.9 23:28:35 27° SW 23:30:58 41° S 23:36:08 10° ESE
Cosmos 1076 Rocket 3.4 23:34:29 45° S 23:35:44 87° E 23:40:01 10° N
NOSS 2-2 (D) 3.0 23:35:38 53° WSW 23:36:20 76° NW 23:40:04 10° NE
Helios 1B rocket 4.2 23:34:35 10° NE 23:37:56 24° E 23:39:45 18° SE
USA 305 3.5 23:36:40 18° W 23:39:38 54° NNW 23:43:49 10° NE
Cosmos 1842 Rocket 4.1 23:39:42 10° NNW 23:43:49 42° W 23:44:54 35° SW
Aureole 3 Rocket 3.5 23:39:44 10° N 23:44:13 84° W 23:47:24 28° S
Cosmos 1606 2.9 23:42:00 10° NNW 23:45:44 55° W 23:46:27 46° SW
Cosmos 2298 Rocket 4.1 23:42:23 10° NNW 23:47:46 81° ENE 23:51:24 21° SSE
Cosmos 1125 Rocket 3.8 23:45:10 10° NNW 23:50:26 67° ENE 23:54:49 15° SSE
Cosmos 1092 Rocket 3.9 23:47:11 30° S 23:50:26 85° W 23:56:39 10° N
ERBS 2.0 23:51:52 67° S 23:52:11 75° SE 23:55:25 10° NE
Cosmos 2221 3.4 23:48:24 10° NNW 23:52:13 32° W 23:53:10 29° WSW
CZ-2D R/B 2.6 23:47:29 10° NNE 23:52:35 52° E 23:55:27 25° SSE
CZ-4 R/B 3.8 23:48:15 10° N 23:52:56 73° WNW 23:54:59 34° SSW
Cosmos 1570 Rocket 4.3 23:51:07 28° SW 23:53:41 57° WNW 23:58:50 10° NNE
